Wind_Speed
66 68 66 68 69 73 80 86 94 96 90 87 89 88 96 101 100 95 93 94 95 98 99 93 95 98 96 93 88 81 74 68 67 72 76 74 72 71 73 65 62 59 59 60 60
45 63 64 65 68 71 72 76 83 90 97 97 93 90 89 90 97 95 104 101 100 100 98 97 96 98 97 95 92 93 84 71 77 80 82 81 75 74 69 64 66 67 65 59 54
16 35 60 64 65 69 71 73 76 81 91 100 103 97 93 92 95 97 93 99 106 105 104 104 103 105 102 102 93 94 90 83 80 78 77 75 69 70 70 63 62 64 64 63 60
22 24 30 43 58 66 69 73 75 77 81 89 91 105 105 100 101 100 92 98 100 106 110 109 107 110 102 100 100 101 97 96 91 86 82 77 79 68 67 63 68 68 63 64 62
29 32 34 36 42 52 62 69 72 76 80 84 87 90 99 106 106 107 105 103 102 99 102 103 106 107 106 103 103 105 100 100 96 94 89 86 77 76 75 68 68 68 69 68 68
29 33 39 42 43 46 49 56 65 74 80 83 85 88 92 99 111 111 115 113 109 109 105 106 108 105 106 109 109 98 96 98 95 89 89 90 84 78 73 74 73 75 69 67 67
32 33 38 42 48 52 54 56 58 61 68 78 85 90 91 98 102 111 115 111 118 115 120 115 112 111 108 107 106 112 106 102 97 93 88 89 82 74 72 74 71 72 74 75 74
37 38 41 41 46 51 57 61 65 67 70 72 75 81 91 99 103 106 108 116 118 119 121 122 122 117 115 112 108 107 112 112 102 102 101 104 84 82 82 83 82 83 83 81 77
38 39 41 44 46 50 57 61 68 73 78 81 83 84 90 96 102 109 112 113 116 117 120 126 126 122 121 119 116 109 103 101 97 99 107 110 91 89 92 95 88 89 87 82 72
33 33 35 40 45 49 53 59 68 73 78 85 91 95 98 100 102 105 112 113 115 117 116 120 122 126 123 124 115 108 105 104 101 99 104 108 93 87 89 94 90 83 76 71 69
27 28 31 35 40 46 51 57 64 73 78 85 93 101 106 110 109 109 114 114 117 119 118 120 121 115 114 117 123 122 115 112 108 105 102 100 93 86 88 89 84 78 72 71 71
27 29 33 37 42 48 53 58 64 68 74 79 89 101 111 114 116 115 116 115 117 118 120 120 114 112 113 119 117 117 114 114 111 109 109 102 93 87 86 82 83 83 77 71 65
27 31 34 40 45 50 54 60 62 64 66 71 78 82 90 102 110 119 119 118 119 119 119 118 114 115 115 116 115 113 111 111 112 113 107 101 97 89 87 84 83 77 72 69 66
29 32 38 43 46 51 54 58 58 61 66 72 73 74 69 72 83 103 114 116 121 121 118 115 115 115 115 112 113 111 108 108 106 108 105 104 95 94 86 82 83 80 75 73 74
28 35 40 45 47 50 53 56 56 60 69 70 63 57 58 60 69 84 103 107 110 117 127 117 116 115 117 112 111 107 108 104 103 101 100 95 89 72 86 79 78 83 79 83 83
34 38 41 43 46 52 54 56 57 61 61 55 49 45 44 49 56 69 84 95 104 107 114 116 124 120 114 115 112 108 106 105 104 101 91 85 84 68 75 73 75 74 69 68 69
37 40 42 46 50 52 56 57 59 61 61 52 44 44 39 41 47 55 71 86 95 97 97 109 115 121 120 115 111 107 104 102 100 96 84 86 77 64 73 67 66 59 56 58 58
42 44 47 54 54 56 59 58 60 64 57 50 41 36 38 36 42 47 59 71 85 90 90 98 109 113 122 120 115 107 103 99 96 90 86 85 66 66 66 65 62 57 57 57 56
45 48 52 54 58 57 58 59 60 60 53 43 42 34 30 31 35 40 48 57 69 83 83 89 97 104 111 120 119 113 106 98 95 89 83 74 65 59 60 59 56 54 53 51 49
49 53 54 56 56 57 60 60 61 59 54 41 34 31 26 26 28 34 42 45 57 67 76 84 86 94 101 109 113 116 111 106 95 87 75 66 58 49 53 45 43 40 37 35 36
49 51 54 57 56 57 62 62 62 59 54 44 35 29 26 23 23 29 34 41 43 54 63 71 81 86 93 96 102 107 112 111 103 91 76 65 53 48 49 47 37 31 30 30 33
47 50 54 58 55 55 60 59 60 60 56 46 39 32 27 21 21 23 29 34 38 43 53 56 75 83 85 87 92 98 102 104 102 93 81 66 57 56 56 50 39 33 33 32 28
49 53 53 59 56 58 62 65 58 59 58 54 42 37 30 24 18 20 23 30 33 37 42 47 61 73 79 80 81 83 89 92 93 92 84 73 62 62 64 52 45 40 35 35 30
50 54 56 60 60 56 61 67 63 61 59 57 45 37 31 27 21 14 18 24 28 30 35 44 53 64 72 75 74 70 74 77 82 85 84 74 67 70 69 57 47 39 38 35 31
50 54 58 61 65 63 61 66 61 61 58 60 49 39 34 22 18 15 12 19 23 25 30 37 43 52 61 63 65 69 66 64 64 72 77 75 66 76 68 62 50 44 40 36 34
52 58 60 62 66 67 61 66 64 58 59 60 52 38 32 26 18 16 10 13 15 22 26 30 37 43 49 53 58 66 65 62 58 60 65 71 71 73 70 64 53 46 41 35 31
55 59 61 62 65 70 66 63 63 57 55 56 52 42 33 22 18 13 10 8 11 15 22 26 31 37 38 41 48 56 60 57 56 58 60 68 72 71 65 61 56 50 44 40 33
Wind_Direction
225 228 230 232 232 231 229 231 231 231 230 235 234 234 234 233 235 235 234 236 238 239 237 238 240 240 241 242 242 244 249 245 247 250 252 254 257 258 259 260 259 260 265 268 272
235 231 234 235 236 235 236 233 234 235 233 233 235 240 236 234 238 239 238 237 238 239 240 238 240 239 241 242 245 247 244 249 251 255 257 260 258 258 258 256 260 265 265 266 267
259 241 238 240 240 240 239 238 236 237 237 235 234 235 237 233 241 244 239 241 241 242 243 244 245 246 243 244 243 244 246 248 254 251 251 252 252 255 259 261 263 263 268 269 264
261 254 246 244 244 241 243 242 243 242 238 239 239 236 236 239 239 236 237 242 244 244 243 244 244 246 244 246 246 243 243 249 252 248 251 255 253 256 262 262 267 269 267 268 264
259 256 253 248 244 243 244 242 242 243 243 242 241 241 239 239 240 235 236 240 243 244 245 246 245 247 247 246 247 248 247 247 248 251 253 252 257 258 260 263 267 270 269 268 271
265 259 254 252 251 250 247 246 246 244 243 243 242 242 241 239 239 240 236 240 240 239 242 246 248 248 247 247 245 245 243 245 245 246 250 252 254 255 261 263 262 262 264 269 271
265 266 260 255 252 250 250 250 247 247 247 247 244 242 241 241 241 242 239 241 239 241 243 245 245 248 249 248 246 244 244 247 248 248 250 254 251 258 257 259 260 264 266 268 274
276 269 263 259 255 252 250 249 249 249 249 246 246 244 243 242 241 242 242 242 242 244 243 245 245 245 248 247 246 246 246 246 248 250 251 253 249 257 259 261 261 262 267 271 275
281 273 270 263 262 259 257 254 253 250 249 249 248 245 244 241 241 241 241 240 242 243 243 243 243 245 246 247 247 247 249 249 250 251 252 254 253 256 258 260 262 264 269 274 277
281 275 273 270 269 268 266 263 260 256 254 251 249 246 246 244 241 241 241 241 241 241 242 244 245 246 246 245 247 250 250 248 248 250 251 253 250 253 256 260 262 266 269 271 270
285 285 284 281 281 280 276 271 267 264 257 254 252 248 247 246 243 241 239 240 240 240 240 240 242 245 247 246 245 247 248 246 248 249 252 252 251 250 253 257 263 267 267 269 269
292 297 297 295 294 291 288 285 278 274 272 265 258 253 248 246 245 242 242 240 239 240 241 241 242 240 242 245 246 246 247 246 247 250 251 252 252 252 256 260 263 265 269 270 269
305 302 303 307 307 302 300 296 293 287 282 276 271 263 258 254 251 249 244 242 242 241 240 241 240 240 241 241 243 245 246 245 247 249 251 252 251 254 256 260 266 266 265 264 266
310 312 311 314 312 311 308 303 297 290 286 282 281 280 268 257 244 244 249 243 242 242 242 240 241 243 243 242 242 243 245 246 246 247 248 252 251 254 255 260 264 262 259 264 267
315 316 317 322 320 321 321 314 307 302 298 295 290 282 272 257 243 240 240 242 240 239 240 241 240 240 242 243 242 241 242 244 247 248 249 251 254 251 254 256 252 251 259 264 267
318 317 324 330 329 330 330 325 319 311 306 306 299 289 272 258 249 240 235 239 239 237 236 237 237 239 238 240 241 241 242 243 245 247 250 252 254 251 252 252 252 256 261 263 264
324 325 329 336 336 335 336 334 326 327 320 313 305 296 281 266 251 241 238 233 234 237 236 233 235 237 237 238 240 241 242 243 244 246 249 249 250 251 254 253 258 261 262 260 261
329 329 329 335 337 337 338 338 338 334 325 318 314 301 289 271 258 244 238 234 233 234 234 232 233 232 234 236 238 239 241 242 244 245 245 247 251 254 251 254 256 261 261 259 259
331 331 331 335 339 339 341 344 341 336 332 324 320 311 298 280 265 252 244 237 232 233 232 231 231 232 232 233 234 236 238 240 241 241 241 245 244 245 251 252 257 254 255 257 260
333 334 336 338 340 343 346 347 344 341 339 331 327 320 309 296 275 255 248 241 235 233 231 232 231 231 232 232 232 234 234 237 238 239 240 240 239 241 248 248 247 249 251 251 248
341 341 340 342 341 346 352 350 345 344 345 338 337 334 324 309 280 263 250 246 238 231 233 226 230 230 230 230 231 231 232 233 234 235 235 233 232 230 238 237 237 237 235 232 235
348 346 345 345 344 347 349 352 347 346 348 347 342 340 337 325 299 268 254 244 241 233 230 225 227 228 229 229 229 229 230 232 232 231 231 229 227 228 230 232 232 222 221 224 221
346 345 349 352 348 349 352 353 350 349 351 351 346 343 340 333 317 285 260 250 238 235 231 220 225 227 229 229 228 226 228 228 229 230 228 225 221 224 226 233 230 220 220 225 226
349 351 353 353 353 351 352 351 352 350 351 353 349 344 342 335 325 307 273 256 243 231 225 220 217 223 226 223 224 225 226 225 225 226 224 219 213 218 220 227 225 220 219 220 228
347 349 352 354 353 353 355 352 352 351 352 353 351 348 343 341 329 319 285 262 249 235 224 221 219 219 225 225 218 219 218 219 217 221 221 215 208 218 216 222 222 218 218 221 220
345 346 348 351 352 353 354 354 351 352 352 352 351 351 346 340 340 325 303 268 244 234 225 219 220 219 221 222 214 211 212 209 205 211 214 211 206 216 215 218 216 217 214 218 219
341 343 343 348 349 351 354 355 352 350 354 350 352 353 351 347 343 333 313 274 241 222 214 213 212 213 214 213 213 208 206 200 197 200 202 201 209 211 209 211 211 212 212 211 217
Height
10684 10691 10697 10702 10707 10712 10717 10721 10726 10731 10737 10741 10746 10753 10758 10763 10765 10772 10775 10766 10773 10780 10789 10792 10797 10800 10810 10815 10821 10830 10844 10846 10841 10831 10823 10834 10842 10844 10850 10854 10854 10863 10867 10867 10874
10681 10685 10689 10692 10696 10700 10704 10708 10713 10715 10720 10725 10730 10737 10742 10747 10750 10751 10753 10754 10756 10766 10774 10776 10778 10781 10796 10800 10809 10819 10833 10834 10822 10816 10815 10824 10833 10828 10835 10841 10847 10851 10856 10861 10864
10677 10678 10681 10684 10686 10689 10692 10696 10699 10702 10704 10708 10713 10719 10725 10731 10731 10732 10736 10734 10739 10747 10754 10758 10759 10767 10781 10784 10798 10805 10820 10813 10812 10805 10801 10808 10824 10819 10823 10836 10835 10837 10845 10850 10852
10673 10673 10672 10673 10674 10677 10681 10684 10685 10688 10689 10692 10696 10702 10706 10712 10711 10711 10717 10719 10721 10728 10735 10738 10741 10749 10762 10769 10771 10785 10800 10800 10799 10795 10792 10797 10806 10820 10815 10825 10822 10824 10831 10835 10839
10665 10663 10663 10664 10664 10664 10665 10667 10669 10671 10672 10675 10680 10685 10689 10694 10686 10694 10699 10702 10704 10709 10712 10717 10721 10728 10744 10751 10748 10768 10781 10785 10785 10780 10785 10784 10794 10810 10818 10812 10807 10811 10813 10818 10821
10655 10653 10653 10653 10653 10653 10652 10651 10652 10651 10652 10655 10660 10663 10668 10672 10667 10670 10679 10680 10683 10689 10693 10696 10703 10708 10715 10728 10733 10752 10758 10765 10771 10774 10771 10773 10784 10793 10807 10791 10800 10800 10802 10805 10811
10644 10642 10640 10639 10638 10637 10637 10638 10639 10636 10634 10634 10637 10641 10646 10641 10644 10644 10654 10658 10660 10666 10670 10676 10678 10684 10699 10709 10719 10729 10737 10746 10763 10766 10763 10751 10771 10791 10782 10776 10784 10784 10791 10796 10801
10631 10628 10626 10624 10623 10621 10621 10621 10618 10618 10618 10617 10618 10619 10617 10616 10618 10620 10628 10634 10637 10643 10649 10653 10657 10669 10678 10686 10695 10703 10714 10734 10756 10740 10743 10726 10776 10772 10762 10764 10773 10774 10775 10784 10792
10618 10615 10612 10609 10607 10606 10603 10602 10596 10598 10597 10595 10594 10597 10588 10589 10590 10592 10596 10605 10609 10617 10622 10621 10632 10645 10655 10666 10675 10689 10709 10724 10718 10716 10715 10709 10772 10757 10749 10743 10760 10765 10770 10776 10781
10605 10602 10600 10597 10595 10592 10588 10583 10574 10573 10571 10568 10566 10568 10560 10563 10564 10567 10568 10575 10584 10588 10597 10598 10608 10619 10635 10647 10669 10680 10689 10692 10698 10698 10691 10698 10745 10738 10733 10735 10750 10755 10763 10767 10767
10595 10592 10590 10587 10583 10577 10571 10566 10557 10546 10548 10543 10538 10535 10531 10528 10531 10537 10534 10546 10553 10559 10568 10573 10581 10607 10618 10625 10634 10647 10661 10667 10676 10679 10673 10692 10720 10725 10724 10730 10739 10744 10750 10754 10754
10587 10584 10579 10575 10570 10563 10554 10545 10536 10529 10518 10513 10506 10499 10493 10494 10498 10506 10507 10521 10525 10532 10538 10547 10572 10582 10589 10594 10610 10623 10635 10645 10655 10656 10662 10677 10702 10716 10718 10725 10727 10733 10738 10741 10743
10578 10573 10569 10563 10554 10545 10534 10523 10511 10501 10493 10482 10470 10467 10468 10471 10472 10466 10481 10493 10497 10505 10515 10528 10549 10552 10563 10572 10585 10599 10610 10625 10635 10637 10650 10661 10684 10700 10707 10714 10716 10723 10725 10728 10729
10569 10564 10556 10549 10538 10527 10517 10503 10491 10479 10468 10455 10441 10432 10428 10428 10433 10430 10438 10456 10469 10480 10488 10507 10522 10531 10537 10554 10564 10580 10589 10600 10614 10621 10639 10642 10674 10681 10693 10705 10708 10712 10710 10715 10714
10560 10554 10545 10535 10524 10512 10497 10483 10469 10455 10438 10425 10412 10404 10394 10393 10396 10399 10405 10415 10432 10446 10447 10493 10496 10503 10513 10530 10539 10563 10568 10582 10590 10603 10617 10639 10651 10696 10669 10692 10692 10687 10703 10702 10704
10553 10543 10536 10525 10512 10497 10482 10465 10450 10434 10415 10398 10385 10379 10372 10371 10371 10374 10376 10384 10393 10408 10425 10454 10459 10471 10495 10502 10517 10534 10549 10565 10574 10584 10606 10630 10637 10675 10656 10669 10669 10681 10695 10697 10694
10543 10533 10523 10513 10500 10485 10469 10452 10433 10412 10392 10380 10371 10360 10354 10350 10350 10353 10353 10360 10370 10384 10408 10422 10431 10457 10467 10482 10496 10514 10532 10545 10559 10575 10609 10606 10629 10657 10636 10655 10662 10675 10679 10679 10682
10533 10523 10512 10500 10487 10472 10455 10438 10416 10399 10381 10365 10357 10348 10339 10335 10333 10335 10335 10343 10354 10366 10380 10393 10408 10426 10442 10459 10477 10495 10512 10530 10545 10567 10585 10590 10633 10637 10617 10640 10654 10662 10663 10665 10668
10524 10513 10501 10488 10474 10460 10443 10424 10409 10394 10375 10360 10343 10335 10327 10324 10321 10321 10322 10332 10338 10347 10366 10372 10388 10404 10421 10432 10453 10474 10491 10515 10526 10547 10567 10594 10616 10616 10610 10628 10643 10645 10648 10653 10658
10515 10503 10491 10478 10464 10449 10431 10414 10399 10383 10365 10351 10339 10327 10318 10313 10311 10312 10311 10316 10324 10333 10345 10361 10374 10386 10397 10412 10435 10453 10473 10488 10511 10533 10563 10588 10604 10612 10597 10617 10630 10634 10639 10644 10648
10508 10496 10482 10467 10453 10440 10426 10406 10389 10375 10359 10343 10331 10320 10311 10305 10304 10302 10302 10304 10310 10320 10328 10346 10355 10366 10374 10396 10414 10431 10451 10470 10494 10522 10552 10576 10597 10598 10587 10601 10623 10626 10629 10636 10638
10504 10491 10478 10462 10447 10433 10419 10406 10386 10368 10352 10337 10325 10315 10306 10300 10296 10295 10294 10295 10298 10306 10314 10331 10334 10346 10361 10376 10392 10411 10432 10453 10481 10513 10540 10565 10584 10584 10572 10595 10613 10617 10622 10627 10633
10495 10485 10473 10460 10443 10425 10409 10396 10382 10365 10348 10331 10320 10310 10302 10296 10291 10288 10287 10287 10291 10296 10304 10316 10323 10333 10344 10362 10378 10399 10418 10441 10470 10492 10525 10550 10572 10569 10558 10588 10602 10609 10616 10622 10627
10490 10477 10465 10452 10439 10425 10408 10389 10373 10357 10343 10330 10317 10307 10298 10291 10286 10284 10282 10281 10284 10288 10294 10299 10308 10317 10326 10343 10367 10391 10407 10429 10451 10478 10505 10539 10552 10544 10547 10577 10593 10605 10611 10617 10622
10484 10473 10461 10446 10429 10417 10402 10386 10371 10355 10340 10327 10315 10304 10294 10288 10283 10279 10278 10276 10278 10281 10287 10292 10300 10310 10318 10334 10359 10375 10396 10418 10443 10464 10489 10517 10539 10520 10545 10567 10585 10597 10606 10611 10616
10478 10465 10452 10441 10427 10414 10400 10383 10366 10354 10338 10324 10313 10304 10293 10284 10279 10275 10275 10274 10275 10278 10281 10287 10295 10302 10310 10324 10343 10360 10381 10402 10430 10452 10475 10500 10514 10512 10537 10557 10577 10587 10597 10606 10611
10471 10460 10448 10437 10423 10408 10396 10384 10367 10352 10342 10328 10314 10301 10291 10283 10277 10275 10272 10271 10271 10273 10276 10281 10288 10296 10306 10320 10336 10356 10374 10400 10423 10441 10461 10480 10480 10501 10532 10550 10565 10577 10587 10598 10605